Weather History for KCBM - August, 2013

Change the Weather History Date:

Thursday, August 1, 2013

  Actual Average Record
Temperature  
Mean Temperature 82 °F -  
Max Temperature 90 °F 89 °F 101 °F (2010)
Min Temperature 74 °F 70 °F 64 °F (1997)
Cooling Degree Days 18    
Growing Degree Days 32 (Base 50)    
Moisture  
Dew Point 73 °F    
Average Humidity 80    
Maximum Humidity 100    
Minimum Humidity 50    
Precipitation  
Precipitation 0.00 in - - ()
Sea Level Pressure  
Sea Level Pressure 29.99 in    
Wind  
Wind Speed 3 mph (North)    
Max Wind Speed 10 mph    
Max Gust Speed -    
Visibility 10 miles    
Events Rain    
Averages and records for this station are not official NWS values.
T = Trace of Precipitation, MM = Missing Value Source: NWS Daily Summary

Daily Weather History Graph

Daily Weather History Graph

Search for Another Location

Airport or City:

Trip Planner

Search our weather history database for the weather conditions in past years. The results will help you decide how hot, cold, wet, or windy it might be!

Date:

Astronomy

Aug. 01, 2013 Rise Set
Actual Time 6:06 AM CDT 7:53 PM CDT
Civil Twilight 5:38 AM CDT 8:20 PM CDT
Nautical Twilight 5:05 AM CDT 8:53 PM CDT
Astronomical Twilight 4:31 AM CDT 9:28 PM CDT
Moon 1:43 AM CDT (8/1) 4:00 PM CDT (8/1)
Length of Visible Light 14h 41m
Length of Day
13h 47m
Waning Crescent, 23% of the Moon is Illuminated
Aug 1
Waning Crescent
Aug 6
New
Aug 14
First Quarter
Aug 20
Full
Aug 28
Last Quarter

Hourly Weather History & Observations

Time (CDT) Temp. Heat Index Dew Point Humidity Pressure Visibility Wind Dir Wind Speed Gust Speed Precip Events Conditions
12:08 AM 77.0 °F - 73.4 °F 89% 29.98 in 10.0 mi SSW 3.5 mph - N/A   Mostly Cloudy
12:43 AM 77.0 °F - 75.2 °F 94% 29.97 in 10.0 mi North 2.3 mph - N/A   Mostly Cloudy
12:54 AM 77.0 °F - 75.2 °F 94% 29.97 in 10.0 mi North 1.2 mph - N/A Rain Light Rain
12:58 AM 76.3 °F - 74.5 °F 94% 29.97 in 10.0 mi Calm Calm - 0.00 in Rain Light Rain
1:04 AM 77.0 °F - 75.2 °F 94% 29.97 in 10.0 mi Calm Calm - N/A   Overcast
1:14 AM 77.0 °F - 75.2 °F 94% 29.97 in 10.0 mi East 2.3 mph - N/A   Overcast
1:49 AM 75.2 °F - 75.2 °F 100% 29.96 in 10.0 mi Calm Calm - N/A   Mostly Cloudy
1:58 AM 75.6 °F - 74.7 °F 97% 29.96 in 10.0 mi Calm Calm - 0.00 in   Mostly Cloudy
2:53 AM 77.0 °F - 75.2 °F 94% 29.96 in 10.0 mi North 1.2 mph - N/A   Scattered Clouds
2:58 AM 76.6 °F - 76.1 °F 98% 29.96 in 10.0 mi NNW 2.3 mph - N/A   Partly Cloudy
3:58 AM 75.4 °F - 75.4 °F 100% 29.96 in 10.0 mi Calm Calm - N/A   Partly Cloudy
4:13 AM 75.2 °F - 75.2 °F 100% 29.96 in 10.0 mi NNW 1.2 mph - N/A   Mostly Cloudy
4:33 AM 75.2 °F - 75.2 °F 100% 29.96 in 10.0 mi WNW 2.3 mph - N/A   Scattered Clouds
4:58 AM 75.4 °F - 75.0 °F 99% 29.96 in 10.0 mi Calm Calm - N/A   Clear
5:58 AM 75.0 °F - 75.0 °F 100% 29.99 in 10.0 mi Calm Calm - N/A   Clear
6:58 AM 75.0 °F - 75.0 °F 100% 29.99 in 6.0 mi Calm Calm - N/A   Clear
7:12 AM 75.2 °F - 75.2 °F 100% 30.00 in 7.0 mi ENE 2.3 mph - N/A   Partly Cloudy
7:58 AM 78.1 °F - 73.0 °F 84% 30.01 in 10.0 mi Calm Calm - N/A   Clear
7:59 AM 78.8 °F - 73.4 °F 83% 30.01 in 10.0 mi North 1.2 mph - N/A   Partly Cloudy
8:58 AM 79.9 °F - 72.7 °F 79% 30.02 in 10.0 mi North 5.8 mph - N/A   Clear
9:58 AM 82.4 °F 87.7 °F 72.5 °F 72% 30.02 in 10.0 mi North 4.6 mph - N/A   Scattered Clouds
10:08 AM 82.4 °F 88.2 °F 73.4 °F 74% 30.02 in 10.0 mi NNE 6.9 mph - N/A   Mostly Cloudy
10:43 AM 84.2 °F 90.9 °F 73.4 °F 70% 30.02 in 10.0 mi North 9.2 mph - N/A   Mostly Cloudy
10:58 AM 83.7 °F 90.1 °F 73.4 °F 71% 30.02 in 10.0 mi Variable 5.8 mph - N/A   Mostly Cloudy
11:03 AM 84.2 °F 90.9 °F 73.4 °F 70% 30.02 in 10.0 mi North 6.9 mph - N/A   Mostly Cloudy
11:08 AM 84.2 °F 90.9 °F 73.4 °F 70% 30.02 in 10.0 mi North 8.1 mph - N/A   Scattered Clouds
11:33 AM 86.0 °F 93.4 °F 73.4 °F 66% 30.02 in 10.0 mi NNW 10.4 mph - N/A   Mostly Cloudy
11:53 AM 86.0 °F 91.8 °F 71.6 °F 62% 30.01 in 10.0 mi NNW 9.2 mph - N/A   Mostly Cloudy
11:58 AM 86.7 °F 93.7 °F 72.7 °F 63% 30.01 in 10.0 mi North 6.9 mph - N/A   Scattered Clouds
12:58 PM 87.8 °F 93.0 °F 70.5 °F 56% 30.00 in 10.0 mi NNW 9.2 mph - N/A   Partly Cloudy
1:58 PM 88.7 °F 94.8 °F 71.4 °F 56% 29.99 in 10.0 mi NNW 10.4 mph - N/A   Partly Cloudy
2:58 PM 90.5 °F 96.0 °F 70.0 °F 51% 29.99 in 10.0 mi NNW 10.4 mph - N/A   Partly Cloudy
3:58 PM 90.3 °F 95.7 °F 70.0 °F 51% 29.97 in 10.0 mi NNW 8.1 mph - N/A   Clear
4:58 PM 90.1 °F 94.9 °F 69.3 °F 50% 29.96 in 10.0 mi NNW 9.2 mph - N/A   Clear
5:58 PM 89.6 °F 95.2 °F 70.3 °F 53% 29.96 in 10.0 mi North 8.1 mph - N/A   Clear
6:58 PM 87.3 °F 93.2 °F 71.2 °F 59% 29.96 in 10.0 mi North 5.8 mph - N/A   Clear
7:58 PM 82.6 °F 87.3 °F 71.6 °F 69% 29.96 in 10.0 mi NE 2.3 mph - N/A   Clear
8:58 PM 79.9 °F - 71.4 °F 75% 29.99 in 10.0 mi NNE 3.5 mph - N/A   Clear
9:58 PM 77.0 °F - 71.4 °F 83% 29.99 in 10.0 mi NNE 4.6 mph - N/A   Clear
10:58 PM 75.9 °F - 71.2 °F 85% 30.01 in 10.0 mi North 2.3 mph - N/A   Clear
11:58 PM 74.8 °F - 70.7 °F 87% 30.01 in 10.0 mi NNE 2.3 mph - N/A   Clear